Flag for Germany Weather past 2 weeks in Freising, Bavaria, Germany

Now
54 °F

Fog.


Feels Like: 54 °F
Forecast: 49 / 70 °F
Wind: 3 mph from East

Location: Muenchen Flughafen

Current Time: Sep 17, 2014 at 10:27:43 AM

Latest Report: Sep 17, 2014 at 10:00 AM


Visibility: 0 mi

Pressure: 29.97 "Hg

Humidity: 100%

Dew point: 54 °F

Location of FreisingLocation

Historic Weather in Freising — Graph

°F

Freising temperature yesterday

Maximum temperature yesterday: 65 °F (at 6:00 PM)
Minimum temperature yesterday: 49 °F (at 12:00 AM)
Average temperature yesterday: 58 °F

Past Weeks' High & Low Weather Summary

 TemperatureHumidityPressure
High78 °F (Sep 8, 4:00 PM)100% (Sep 5, 5:00 AM)30.16 "Hg (Sep 5, 5:00 AM)
Low49 °F (Sep 10, 7:00 AM)47% (Sep 7, 4:00 PM)29.84 "Hg (Sep 6, 5:00 PM)
Average60 °F86%30.01 "Hg
* Reported Sep 2 9:00 AM — Sep 17 9:00 AM, Freising, Weather by CustomWeather, © 2014

Note: Actual official high and low records may vary slightly from our data, if they occured in-between our weather recording intervals... More about our weather records

Advertising

Freising weather history for previous 24 hours

 ConditionsComfort  
Time TempWeatherWind HumidityBarometerVisibility
9:00 AM
Sep 17
54 °FFog.2 mph100%29.97 "Hg1 mi
8:00 AM54 °FFog.3 mph100%29.97 "Hg0 mi
7:00 AM54 °FFog.2 mph100%29.97 "Hg0 mi
6:00 AM54 °FFog.2 mph100%29.96 "Hg0 mi
5:00 AM53 °FFog.2 mph100%29.97 "Hg1 mi
4:00 AM51 °FFog.2 mph100%29.98 "Hg0 mi
3:00 AM51 °FFog.1 mph100%29.99 "Hg0 mi
2:00 AM49 °FFog.1 mph100%30.01 "Hg0 mi
1:00 AM51 °FFog.No wind100%30.00 "Hg0 mi
12:00 AM51 °FFog.1 mph100%30.00 "Hg0 mi
11:00 PM
Sep 16
52 °FFog.No wind100%30.00 "Hg1 mi
10:00 PM54 °FFog.1 mphN/A30.00 "Hg2 mi
9:00 PM54 °FFog.No wind100%30.01 "Hg6 mi
8:00 PM58 °FPassing clouds.1 mph96%29.98 "Hg9 mi
7:00 PM64 °FPassing clouds.1 mph80%29.97 "Hg12 mi
6:00 PM65 °FPassing clouds.1 mph75%29.97 "Hg12 mi
5:00 PM65 °FScattered clouds.2 mph80%29.97 "Hg14 mi
4:00 PM64 °FScattered clouds.2 mph77%29.98 "Hg14 mi
3:00 PM65 °FPartly sunny.2 mph78%29.99 "Hg12 mi
2:00 PM63 °FOvercast.2 mph82%30.01 "Hg9 mi
1:00 PM62 °FLow clouds.2 mph85%30.01 "Hg7 mi
12:00 PM61 °FLow clouds.1 mph89%30.02 "Hg6 mi
11:00 AM59 °FFog.2 mph92%30.03 "Hg4 mi
10:00 AM58 °FLow clouds.2 mph98%30.03 "Hg2 mi
Weather by CustomWeather, © 2014

See weather overviewHow to use our weather pages